• In Hungary
  • List of Countries
  • For 7 days
  • Water Temperature
  • Satellite Maps
  • Weather Map
  • News
  • Weather Widgets
  • user-avatar
    Login

    Hourly Weather Sucre

    Today, 25 May, Friday

    Time Temperature Precipitation Wind Pressure Humidity
    00:00 +9°C° 0 mm 1 mps 540 mmHg 82%
    01:00 +8°C° 0 mm 1 mps 540 mmHg 83%
    02:00 +7°C° 0 mm 0 mps 539 mmHg 86%
    03:00 +6°C° 0 mm 0 mps 539 mmHg 85%
    04:00 +6°C° 0 mm 0 mps 539 mmHg 84%
    05:00 +6°C° 0 mm 0 mps 539 mmHg 83%
    06:00 +8°C° 0 mm 1 mps 540 mmHg 77%
    07:00 +9°C° 0 mm 1 mps 541 mmHg 71%
    08:00 +10°C° 0 mm 1 mps 542 mmHg 65%
    09:00 +12°C° 0 mm 1 mps 543 mmHg 56%
    10:00 +14°C° 0 mm 1 mps 543 mmHg 46%
    11:00 +16°C° 0 mm 1 mps 544 mmHg 37%
    12:00 +17°C° 0 mm 2 mps 544 mmHg 34%
    13:00 +18°C° 0 mm 2 mps 544 mmHg 32%
    14:00 +19°C° 0 mm 3 mps 544 mmHg 29%
    15:00 +18°C° 0 mm 3 mps 543 mmHg 33%
    16:00 +18°C° 0 mm 3 mps 543 mmHg 37%
    17:00 +17°C° 0 mm 3 mps 542 mmHg 41%
    18:00 +14°C° 0 mm 3 mps 542 mmHg 49%
    19:00 +13°C° 0 mm 2 mps 541 mmHg 57%
    20:00 +12°C° 0 mm 1 mps 541 mmHg 65%
    21:00 +11°C° 0 mm 1 mps 541 mmHg 69%
    22:00 +10°C° 0 mm 1 mps 541 mmHg 73%
    23:00 +10°C° 0 mm 1 mps 540 mmHg 76%

    Tomorrow, 26 May, Saturday

    Time Temperature Precipitation Wind Pressure Humidity
    00:00 +9°C° 0 mm 1 mps 540 mmHg 78%
    01:00 +9°C° 0 mm 1 mps 540 mmHg 80%
    02:00 +8°C° 0 mm 1 mps 539 mmHg 82%
    03:00 +8°C° 0 mm 1 mps 539 mmHg 83%
    04:00 +8°C° 0 mm 1 mps 538 mmHg 83%
    05:00 +8°C° 0 mm 1 mps 538 mmHg 83%
    06:00 +9°C° 0 mm 1 mps 539 mmHg 76%
    07:00 +10°C° 0 mm 1 mps 540 mmHg 70%
    08:00 +11°C° 0 mm 1 mps 541 mmHg 63%
    09:00 +13°C° 0 mm 1 mps 542 mmHg 54%
    10:00 +15°C° 0 mm 2 mps 543 mmHg 45%
    11:00 +18°C° 0 mm 2 mps 543 mmHg 35%
    12:00 +19°C° 0 mm 2 mps 543 mmHg 33%
    13:00 +20°C° 0 mm 3 mps 543 mmHg 30%
    14:00 +21°C° 0 mm 3 mps 543 mmHg 27%
    15:00 +20°C° 0 mm 3 mps 542 mmHg 29%
    16:00 +19°C° 0 mm 3 mps 542 mmHg 32%
    17:00 +19°C° 0 mm 3 mps 541 mmHg 34%
    18:00 +17°C° 0 mm 2 mps 541 mmHg 43%
    19:00 +15°C° 0 mm 2 mps 540 mmHg 51%
    20:00 +13°C° 0 mm 1 mps 540 mmHg 60%
    21:00 +12°C° 0 mm 1 mps 539 mmHg 62%
    22:00 +12°C° 0 mm 1 mps 539 mmHg 65%
    23:00 +11°C° 0 mm 1 mps 539 mmHg 68%

    Day after tomorrow, 27 May, Sunday

    Time Temperature Precipitation Wind Pressure Humidity
    00:00 +11°C° 0 mm 1 mps 539 mmHg 68%
    01:00 +10°C° 0 mm 1 mps 539 mmHg 69%
    02:00 +10°C° 0 mm 1 mps 538 mmHg 70%
    03:00 +10°C° 0 mm 1 mps 538 mmHg 69%
    04:00 +9°C° 0 mm 1 mps 538 mmHg 68%
    05:00 +9°C° 0 mm 1 mps 538 mmHg 67%
    06:00 +10°C° 0 mm 1 mps 539 mmHg 62%
    07:00 +12°C° 0 mm 1 mps 540 mmHg 57%
    08:00 +13°C° 0 mm 1 mps 541 mmHg 52%
    09:00 +15°C° 0 mm 1 mps 542 mmHg 47%
    10:00 +16°C° 0 mm 2 mps 543 mmHg 41%
    11:00 +18°C° 0 mm 2 mps 544 mmHg 36%
    12:00 +19°C° 0 mm 3 mps 544 mmHg 36%
    13:00 +19°C° 0 mm 3 mps 543 mmHg 36%
    14:00 +20°C° 0 mm 4 mps 543 mmHg 36%
    15:00 +19°C° 0 mm 4 mps 543 mmHg 41%
    16:00 +18°C° 0 mm 4 mps 542 mmHg 46%
    17:00 +17°C° 0 mm 4 mps 542 mmHg 51%
    18:00 +16°C° 0 mm 3 mps 542 mmHg 59%
    19:00 +13°C° 0 mm 3 mps 541 mmHg 66%
    20:00 +13°C° 0 mm 2 mps 541 mmHg 74%
    21:00 +13°C° 0 mm 2 mps 541 mmHg 77%
    22:00 +12°C° 0 mm 1 mps 541 mmHg 79%
    23:00 +12°C° 0 mm 1 mps 542 mmHg 82%

    28 May, Monday

    Time Temperature Precipitation Wind Pressure Humidity
    00:00 +11°C° 0 mm 1 mps 541 mmHg 84%
    01:00 +11°C° 0 mm 1 mps 541 mmHg 85%
    02:00 +10°C° 0 mm 2 mps 540 mmHg 87%
    03:00 +10°C° 0 mm 2 mps 540 mmHg 89%
    04:00 +9°C° 0 mm 2 mps 540 mmHg 90%
    05:00 +9°C° 0 mm 2 mps 539 mmHg 92%
    06:00 +9°C° 0 mm 2 mps 540 mmHg 89%
    07:00 +10°C° 0 mm 2 mps 540 mmHg 85%
    08:00 +10°C° 0 mm 2 mps 541 mmHg 81%
    09:00 +13°C° 0 mm 2 mps 542 mmHg 71%
    10:00 +15°C° 0 mm 2 mps 542 mmHg 61%
    11:00 +17°C° 0 mm 3 mps 543 mmHg 52%
    12:00 +18°C° 0 mm 3 mps 543 mmHg 46%
    13:00 +19°C° 0 mm 3 mps 543 mmHg 41%
    14:00 +20°C° 0 mm 4 mps 542 mmHg 36%
    15:00 +20°C° 0 mm 3 mps 542 mmHg 37%
    16:00 +19°C° 0 mm 3 mps 541 mmHg 39%
    17:00 +19°C° 0 mm 3 mps 541 mmHg 41%
    18:00 +17°C° 0.2 mm 2 mps 540 mmHg 49%
    19:00 +15°C° 0.2 mm 2 mps 540 mmHg 58%
    20:00 +13°C° 0.2 mm 1 mps 540 mmHg 67%
    21:00 +13°C° 0 mm 1 mps 540 mmHg 68%
    22:00 +12°C° 0 mm 1 mps 540 mmHg 70%
    23:00 +12°C° 0 mm 1 mps 540 mmHg 71%

    29 May, Tuesday

    Time Temperature Precipitation Wind Pressure Humidity
    00:00 +11°C° 0 mm 1 mps 539 mmHg 68%
    01:00 +11°C° 0 mm 1 mps 539 mmHg 65%
    02:00 +10°C° 0 mm 1 mps 538 mmHg 62%
    03:00 +9°C° 0 mm 2 mps 538 mmHg 57%
    04:00 +8°C° 0 mm 2 mps 538 mmHg 53%
    05:00 +8°C° 0 mm 2 mps 538 mmHg 48%
    06:00 +9°C° 0 mm 2 mps 539 mmHg 43%
    07:00 +10°C° 0 mm 2 mps 540 mmHg 37%
    08:00 +12°C° 0 mm 2 mps 541 mmHg 31%
    09:00 +14°C° 0 mm 2 mps 541 mmHg 25%
    10:00 +16°C° 0 mm 2 mps 542 mmHg 19%
    11:00 +19°C° 0 mm 2 mps 543 mmHg 13%
    12:00 +20°C° 0 mm 2 mps 543 mmHg 12%
    13:00 +21°C° 0 mm 2 mps 543 mmHg 10%
    14:00 +23°C° 0 mm 2 mps 542 mmHg 9%
    15:00 +21°C° 0 mm 2 mps 542 mmHg 11%
    16:00 +21°C° 0 mm 2 mps 542 mmHg 12%
    17:00 +20°C° 0 mm 2 mps 541 mmHg 14%
    18:00 +18°C° 0 mm 2 mps 541 mmHg 22%
    19:00 +15°C° 0 mm 1 mps 540 mmHg 29%
    20:00 +13°C° 0 mm 1 mps 539 mmHg 37%
    21:00 +12°C° 0 mm 1 mps 539 mmHg 42%
    22:00 +11°C° 0 mm 1 mps 539 mmHg 47%
    23:00 +11°C° 0 mm 1 mps 539 mmHg 52%

    30 May, Wednesday

    Time Temperature Precipitation Wind Pressure Humidity
    00:00 +10°C° 0 mm 1 mps 538 mmHg 53%
    01:00 +10°C° 0 mm 1 mps 538 mmHg 54%
    02:00 +9°C° 0 mm 1 mps 537 mmHg 55%
    03:00 +9°C° 0 mm 1 mps 537 mmHg 53%
    04:00 +8°C° 0 mm 1 mps 537 mmHg 51%
    05:00 +8°C° 0 mm 1 mps 537 mmHg 49%
    06:00 +9°C° 0 mm 1 mps 538 mmHg 45%
    07:00 +11°C° 0 mm 1 mps 539 mmHg 40%
    08:00 +12°C° 0 mm 1 mps 540 mmHg 35%
    09:00 +14°C° 0 mm 1 mps 541 mmHg 29%
    10:00 +16°C° 0 mm 1 mps 542 mmHg 23%
    11:00 +18°C° 0 mm 2 mps 543 mmHg 16%
    12:00 +19°C° 0 mm 2 mps 542 mmHg 15%
    13:00 +20°C° 0 mm 2 mps 542 mmHg 13%
    14:00 +21°C° 0 mm 2 mps 542 mmHg 12%
    15:00 +21°C° 0 mm 2 mps 541 mmHg 14%
    16:00 +20°C° 0 mm 2 mps 541 mmHg 16%
    17:00 +20°C° 0 mm 2 mps 541 mmHg 18%
    18:00 +17°C° 0 mm 2 mps 540 mmHg 26%
    19:00 +15°C° 0 mm 1 mps 539 mmHg 34%
    20:00 +12°C° 0 mm 1 mps 538 mmHg 42%
    21:00 +12°C° 0 mm 1 mps 538 mmHg 47%
    22:00 +11°C° 0 mm 1 mps 538 mmHg 51%
    23:00 +10°C° 0 mm 1 mps 538 mmHg 56%
    Show more